Pila Airport

Jump to: basic info | weather | runways | comments

Related pages: nearby airports | nearby navaids | notams | map

Basic information (top)

Codes: EPPI
Location: lon 53.169998, lat 16.712500, elev 259 ft / 79 m msl
Status: small_airport

Weather (top)

Current conditions for Poznań-Ławica Airport 45nm (84km) S (rec'd 2014/09/16 17:00Z):

EPPO 161700Z 10007KT CAVOK 20/09 Q1020

Airport forecast for Poznań-Ławica Airport 45nm (84km) S (rec'd 2014/09/16 12:33Z):

TAF EPPO 161130Z 1612/1712 09010KT CAVOK PROB30 
      TEMPO 1612/1615 09015G25KT

Runways (top)

03/21: 7,876 x 195 ft (2,401 x 59 m) — other (PEM) — lighted

Latest comments (top)

No comments yet for Pila Airport

More... (top)

See also NOTAMs and nearby airports and navaids, or visit the Pila Airport page at the main OurAirports website..